[[{"header":{"parameterUnit":"m.s-1","parameterCategory":1,"la1":30.2991,"la2":30.254,"lo1":-89.0895,"lo2":-89.0444,"dy":0.0017,"dx":0.0017,"nx":28,"ny":28,"refTime":"2024-04-29T21:00:00:Z","depth":0,"parameterNumber":2,"parameterNumberName":"U-component_of_WINDS"},"data":[0,0,0,0,0,0,0,0,0,0,0,0,0,0,0,0,0,0,0,0,0,0,0,0,0,0,0,0,0,0,0,0,0,0,0,0,0,0,0,0,0,0,0,0,0,0,0,0,0,0,0,0,0,0,0,0,0,0,-2.0557,-2.0556,0,-2.0468,-2.0467,-2.0466,-2.0412,-2.0412,-2.0412,-2.0412,-2.0317,-2.0315,-2.0313,0,0,0,0,0,0,0,0,0,0,0,0,0,-2.068,-2.0678,-2.0558,-2.0556,-2.0555,-2.0468,-2.0467,-2.0465,-2.0412,-2.0412,-2.0412,-2.0412,-2.0318,-2.0315,-2.0312,0,0,0,0,0,0,0,0,0,0,0,0,0,-2.0612,-2.0678,-2.0558,-2.0518,-2.0514,-2.0468,-2.0467,-2.0465,-2.0413,-2.0412,-2.0412,-2.0412,-2.0319,-2.0315,-2.0312,-2.0297,0,0,-2.0301,-2.03,0,0,0,0,0,0,0,0,-2.0616,-2.0608,-2.0525,-2.0521,-2.0516,-2.0451,-2.0475,-2.0409,-2.0413,-2.0451,-2.0412,-2.0411,-2.0362,-2.0355,-2.0339,-2.0293,-2.0289,-2.0301,-2.0299,-2.0298,-2.0297,0,0,0,0,0,0,0,-2.0621,-2.0611,-2.0522,-2.0524,-2.0519,-2.0504,-2.0494,-2.0462,-2.0409,-2.0448,-2.0444,-2.0434,-2.0359,-2.0342,-2.0336,-2.0287,-2.0301,-2.0298,-2.0296,-2.0295,-2.0223,-2.0224,0,0,0,0,0,0,-2.0632,-2.0616,-2.0525,-2.0519,-2.0566,-2.0502,-2.0491,-2.0472,-2.041,-2.04,-2.0434,-2.0432,-2.0348,-2.034,-2.0332,-2.031,-2.0298,-2.0294,-2.0292,-2.0223,-2.0223,-2.0224,0,0,0,0,0,0,-2.0635,-2.0625,-2.0528,-2.0566,-2.0553,-2.0501,-2.048,-2.0471,-2.0453,-2.0399,-2.0389,-2.0427,-2.0348,-2.0337,-2.0306,-2.0306,-2.0293,-2.029,-2.0223,-2.0223,-2.0224,-2.0265,0,0,0,0,0,0,-2.0639,-2.0626,-2.0621,-2.0567,-2.0551,-2.0505,-2.048,-2.0469,-2.0448,-2.0444,-2.039,-2.038,-2.0346,-2.0312,-2.0303,-2.0301,-2.0287,-2.0223,-2.0223,-2.0223,-2.0263,-2.0267,-2.027,0,0,0,0,0,-2.0643,-2.0636,-2.0621,-2.061,-2.0544,-2.0505,-2.0496,-2.0458,-2.0448,-2.0441,-2.0407,-2.0382,-2.0308,-2.0309,-2.0299,-2.0295,-2.0223,-2.0223,-2.0223,-2.0262,-2.0266,-2.0269,0,0,0,0,0,0,-2.069,-2.0628,-2.0611,-2.0585,-2.0551,-2.0496,-2.0487,-2.0464,-2.043,-2.0428,-2.0381,-2.037,-2.0343,-2.0316,-2.0319,-2.0277,-2.0262,-2.0261,-2.0295,-2.0299,-2.0302,-2.0308,-2.0284,0,0,0,0,0,-2.0698,-2.0673,-2.0619,-2.0602,-2.0586,-2.054,-2.0521,-2.0495,-2.0457,-2.0442,-2.0405,-2.0368,-2.0336,-2.0316,-2.0284,-2.026,-2.0246,-2.0252,-2.0255,-2.0258,-2.0257,-2.024,-2.0242,-2.0225,-2.0225,-2.0225,0,0,-2.0713,-2.0676,-2.0663,-2.0611,-2.0581,-2.0554,-2.0527,-2.0501,-2.0481,-2.0437,-2.0406,-2.0377,-2.0333,-2.0305,-2.0291,-2.0282,-2.0259,-2.0259,-2.0261,-2.0258,-2.0241,-2.0243,-2.0244,-2.0225,-2.0225,-2.0225,0,0,-2.0727,-2.0697,-2.0678,-2.0649,-2.0605,-2.0574,-2.057,-2.0518,-2.0497,-2.0465,-2.0432,-2.0407,-2.0353,-2.0323,-2.03,-2.0302,-2.0277,-2.0293,-2.0308,-2.0293,-2.0294,-2.0295,-2.0294,-2.0295,-2.0292,-2.0292,-2.0292,0,-2.0751,-2.0711,-2.0672,-2.0647,-2.0624,-2.0585,-2.0565,-2.0539,-2.0486,-2.047,-2.0461,-2.0393,-2.0361,-2.0324,-2.0325,-2.0308,-2.0301,-2.0298,-2.0297,-2.0298,-2.0298,-2.0297,-2.0297,-2.0294,-2.0294,-2.0294,-2.0294,0,-2.0741,-2.0714,-2.0704,-2.0655,-2.0631,-2.0609,-2.0566,-2.0546,-2.0522,-2.0492,-2.0459,-2.0419,-2.0377,-2.0367,-2.0343,-2.0327,-2.0323,-2.0306,-2.029,-2.0302,-2.03,-2.0299,-2.0297,-2.0296,-2.0296,-2.0295,0,0,-2.0781,-2.071,-2.0707,-2.0684,-2.0631,-2.0609,-2.0585,-2.0545,-2.0528,-2.0493,-2.0471,-2.0426,-2.0411,-2.0385,-2.0357,-2.0344,-2.0346,-2.0329,-2.0327,-2.0332,-2.0324,-2.0336,-2.0336,-2.033,-2.033,-2.033,-2.0327,0,-2.0786,-2.0741,-2.0705,-2.0673,-2.0646,-2.0609,-2.0587,-2.0552,-2.0523,-2.0496,-2.0464,-2.0432,-2.0415,-2.0399,-2.0385,-2.0349,-2.0344,-2.0349,-2.0307,-2.0306,-2.0318,-2.0335,-2.0347,-2.0347,-2.0326,-2.0326,-2.0326,0,-2.0785,-2.0751,-2.0717,-2.0667,-2.0654,-2.0636,-2.0596,-2.057,-2.053,-2.0509,-2.0481,-2.0452,-2.0424,-2.0412,-2.0371,-2.0375,-2.0356,-2.0336,-2.0335,-2.0329,-2.0316,-2.0327,-2.0346,-2.0345,-2.0325,-2.0325,-2.0325,0,-2.0815,-2.0762,-2.0734,-2.0715,-2.0656,-2.0644,-2.0619,-2.0578,-2.0556,-2.0521,-2.0505,-2.0467,-2.0446,-2.0417,-2.0378,-2.0373,-2.0341,-2.0326,-2.0322,-2.0323,-2.0315,-2.0316,-2.033,-2.0306,-2.0306,-2.0306,-2.0306,0,-2.0823,-2.0803,-2.0746,-2.0729,-2.0705,-2.0664,-2.0641,-2.0613,-2.0576,-2.0552,-2.0517,-2.0495,-2.0446,-2.0418,-2.0387,-2.0357,-2.0348,-2.033,-2.0322,-2.0332,-2.0334,-2.0318,-2.0316,-2.0306,-2.0306,-2.0306,-2.0306,0,-2.0852,-2.0814,-2.0781,-2.0728,-2.0714,-2.0699,-2.0653,-2.0634,-2.0604,-2.0573,-2.0563,-2.0515,-2.048,-2.0439,-2.039,-2.0369,-2.0341,-2.033,-2.0355,-2.035,-2.0348,-2.0348,-2.035,-2.0347,-2.0327,-2.0328,-2.0328,0,-2.0859,-2.0843,-2.0788,-2.077,-2.0746,-2.0717,-2.0694,-2.0653,-2.063,-2.0583,-2.0569,-2.0531,-2.0499,-2.0444,-2.0404,-2.0366,-2.0352,-2.0356,-2.0346,-2.0357,-2.0351,-2.0351,-2.0349,-2.0358,-2.0358,-2.0359,-2.0359,0,-2.0874,-2.0856,-2.0825,-2.0788,-2.0762,-2.073,-2.0697,-2.0684,-2.0635,-2.0612,-2.0576,-2.0551,-2.0501,-2.0463,-2.042,-2.0393,-2.0367,-2.0362,-2.0359,-2.0369,-2.0383,-2.0374,-2.036,-2.0362,-2.0362,-2.0362,-2.0361,-2.0361,-2.0891,-2.0875,-2.0834,-2.08,-2.0771,-2.0741,-2.072,-2.0687,-2.0656,-2.0613,-2.059,-2.0554,-2.0513,-2.0453,-2.0427,-2.0397,-2.0388,-2.0384,-2.0383,-2.0382,-2.0384,-2.039,-2.0389,-2.0389,-2.0389,-2.0389,-2.0389,0,-2.0903,-2.0875,-2.0845,-2.08,-2.0773,-2.0753,-2.0715,-2.0694,-2.0663,-2.0627,-2.0596,-2.0553,-2.0517,-2.0474,-2.0434,-2.0419,-2.0406,-2.0409,-2.0409,-2.0403,-2.0395,-2.0401,-2.042,-2.042,-2.042,-2.042,-2.042,-2.042,-2.0907,-2.0877,-2.0854,-2.0809,-2.0781,-2.0745,-2.0725,-2.0697,-2.0668,-2.0622,-2.0592,-2.0565,-2.0526,-2.0483,-2.0448,-2.0436,-2.0422,-2.0429,-2.0414,-2.0407,-2.0404,-2.0401,-2.0407,-2.0427,-2.0427,-2.0425,-2.0425,-2.0425]},{"header":{"parameterUnit":"m.s-1","parameterCategory":1,"la1":30.2991,"la2":30.254,"lo1":-89.0895,"lo2":-89.0444,"dy":0.0017,"dx":0.0017,"nx":28,"ny":28,"refTime":"2024-04-29T21:00:00:Z","depth":0,"parameterNumber":3,"parameterNumberName":"V-component_of_WINDS"},"data":[0,0,0,0,0,0,0,0,0,0,0,0,0,0,0,0,0,0,0,0,0,0,0,0,0,0,0,0,0,0,0,0,0,0,0,0,0,0,0,0,0,0,0,0,0,0,0,0,0,0,0,0,0,0,0,0,0,0,0.9379,0.938,0,0.9428,0.9429,0.9429,0.9476,0.9477,0.9478,0.9478,0.9524,0.9525,0.9525,0,0,0,0,0,0,0,0,0,0,0,0,0,0.9325,0.9326,0.9379,0.938,0.9381,0.9428,0.9429,0.9429,0.9476,0.9477,0.9478,0.9478,0.9524,0.9525,0.9525,0,0,0,0,0,0,0,0,0,0,0,0,0,0.9359,0.9326,0.9379,0.941,0.9413,0.9428,0.9429,0.9429,0.9476,0.9477,0.9478,0.9479,0.9524,0.9525,0.9526,0.9513,0,0,0.9529,0.9529,0,0,0,0,0,0,0,0,0.9357,0.9361,0.9405,0.9408,0.9411,0.9447,0.9427,0.9457,0.9476,0.9452,0.9478,0.9479,0.9498,0.9501,0.9508,0.9515,0.9517,0.9529,0.9529,0.953,0.953,0,0,0,0,0,0,0,0.9354,0.9359,0.9398,0.9405,0.9409,0.942,0.9426,0.9433,0.9469,0.9454,0.9458,0.9463,0.9499,0.9507,0.9509,0.9518,0.9529,0.9529,0.953,0.953,0.9519,0.9518,0,0,0,0,0,0,0.9348,0.9356,0.9397,0.94,0.9386,0.9421,0.9427,0.9435,0.9469,0.9475,0.9462,0.9465,0.9504,0.9508,0.9511,0.9499,0.953,0.9531,0.9531,0.952,0.9519,0.9518,0,0,0,0,0,0,0.9346,0.9351,0.9395,0.9379,0.9386,0.9421,0.9429,0.9435,0.9442,0.9475,0.9481,0.9463,0.9505,0.9509,0.9513,0.9502,0.9531,0.9532,0.9521,0.952,0.9519,0.9476,0,0,0,0,0,0,0.9345,0.935,0.9346,0.9379,0.9386,0.9396,0.9428,0.9435,0.9444,0.9449,0.9477,0.9483,0.9506,0.9511,0.9514,0.9504,0.9533,0.9522,0.9521,0.9519,0.9478,0.9473,0.9469,0,0,0,0,0,0.9342,0.933,0.9345,0.935,0.9382,0.9396,0.94,0.9428,0.9443,0.9439,0.9461,0.9482,0.9503,0.9511,0.9514,0.9504,0.9523,0.9521,0.9519,0.948,0.9474,0.9469,0,0,0,0,0,0,0.9293,0.9335,0.9352,0.9351,0.937,0.9404,0.9399,0.942,0.9434,0.9437,0.9471,0.9477,0.9476,0.9491,0.9499,0.9495,0.9516,0.9515,0.9485,0.948,0.9475,0.9471,0.9533,0,0,0,0,0,0.9282,0.9291,0.9327,0.9322,0.9331,0.9363,0.937,0.9391,0.9411,0.9419,0.944,0.9458,0.9469,0.9475,0.9487,0.9481,0.9488,0.9476,0.9471,0.9467,0.9465,0.9464,0.9459,0.9512,0.9512,0.9512,0,0,0.9259,0.9284,0.9286,0.9313,0.933,0.9337,0.937,0.9376,0.9382,0.9419,0.9424,0.9441,0.9463,0.9462,0.9463,0.9474,0.9453,0.9464,0.9461,0.9461,0.9462,0.9457,0.9452,0.951,0.9511,0.9511,0,0,0.9222,0.9241,0.924,0.9257,0.9283,0.9305,0.9305,0.9337,0.935,0.9356,0.9385,0.9392,0.941,0.9425,0.9435,0.9407,0.9427,0.9409,0.9384,0.9383,0.9379,0.9375,0.9365,0.9361,0.9408,0.9407,0.9407,0,0.9189,0.9203,0.9236,0.9242,0.9252,0.929,0.9289,0.9303,0.9331,0.9338,0.9351,0.9375,0.9392,0.9396,0.939,0.9396,0.9397,0.9406,0.9377,0.9374,0.9371,0.9362,0.9358,0.9405,0.9405,0.9406,0.9406,0,0.9163,0.9172,0.9168,0.9196,0.9207,0.9209,0.9242,0.9249,0.9269,0.929,0.9296,0.9319,0.9337,0.9339,0.9358,0.9346,0.9353,0.9371,0.9392,0.9363,0.9355,0.9352,0.9402,0.9403,0.9403,0.9404,0,0,0.9092,0.9142,0.914,0.9154,0.9187,0.9194,0.9199,0.9218,0.9223,0.9242,0.9246,0.9262,0.928,0.9291,0.9312,0.9311,0.9288,0.933,0.9331,0.9321,0.9277,0.9263,0.9258,0.9303,0.9302,0.9302,0.9275,0,0.906,0.9071,0.9103,0.9104,0.9113,0.915,0.9154,0.9174,0.9195,0.9205,0.9227,0.9238,0.926,0.9267,0.9268,0.9291,0.928,0.9293,0.9306,0.9306,0.9299,0.9254,0.9239,0.9213,0.9272,0.9272,0.9271,0,0.9023,0.9042,0.9045,0.908,0.9085,0.9088,0.9109,0.9119,0.9144,0.9158,0.9173,0.9197,0.9204,0.9225,0.9234,0.9243,0.9251,0.9263,0.9262,0.9264,0.9286,0.9254,0.9205,0.9201,0.9267,0.9267,0.9268,0,0.8973,0.8999,0.9004,0.9015,0.9056,0.9057,0.9074,0.91,0.911,0.9128,0.9135,0.9153,0.9163,0.9176,0.9205,0.9218,0.9212,0.9235,0.9224,0.9223,0.922,0.9219,0.9171,0.9225,0.9225,0.9225,0.9225,0,0.8933,0.8933,0.8982,0.8985,0.8987,0.9024,0.9024,0.9044,0.9067,0.9075,0.9107,0.9113,0.9152,0.9162,0.9185,0.919,0.9194,0.9205,0.9211,0.9202,0.9201,0.9207,0.9209,0.9224,0.9225,0.9225,0.9225,0,0.8875,0.8908,0.8917,0.8956,0.8966,0.8966,0.8999,0.9003,0.9027,0.9036,0.904,0.9076,0.9091,0.9122,0.9144,0.9159,0.9158,0.9169,0.915,0.9154,0.9141,0.9142,0.9094,0.909,0.9147,0.9147,0.9146,0,0.8848,0.8849,0.889,0.8898,0.8914,0.8927,0.8939,0.8975,0.8985,0.9015,0.9016,0.9033,0.9049,0.9071,0.9098,0.9116,0.9127,0.9109,0.9129,0.9121,0.9127,0.9126,0.9127,0.9104,0.9103,0.9103,0.9102,0,0.8795,0.8812,0.8828,0.8851,0.8864,0.8883,0.8903,0.8908,0.8949,0.8959,0.8976,0.8988,0.9012,0.9029,0.9052,0.9068,0.9092,0.9096,0.9094,0.9085,0.9074,0.908,0.9138,0.9096,0.9097,0.9097,0.9098,0.9098,0.8752,0.8755,0.8785,0.8803,0.8823,0.8842,0.8848,0.8874,0.8889,0.8913,0.8933,0.8948,0.8974,0.9007,0.9022,0.9034,0.9045,0.9042,0.9042,0.904,0.9037,0.9073,0.9038,0.9038,0.9038,0.9038,0.9038,0,0.8701,0.8723,0.8738,0.8768,0.8781,0.8805,0.883,0.8839,0.8852,0.8876,0.8892,0.8911,0.8928,0.8959,0.8978,0.8982,0.8993,0.8986,0.8985,0.8989,0.9025,0.9025,0.8976,0.8976,0.8976,0.8976,0.8976,0.8976,0.8676,0.8684,0.8705,0.8724,0.8745,0.8762,0.8774,0.8792,0.8811,0.8832,0.8847,0.8868,0.8894,0.8916,0.8933,0.8942,0.8947,0.8936,0.8948,0.8981,0.8986,0.8992,0.8992,0.8937,0.8937,0.8911,0.8911,0.891]}]]